Regional Weather Roundup
Issued by NWS Mobile, AL

Home | Current Version | Previous Version | Text Only | Print | Product List | Glossary On
Versions: 1 2 3 4 5 6 7 8 9 10 11 12 13 14 15 16 17 18 19 20 21 22 23 24 25 26 27 28
000
ASUS44 KMOB 261713
RWRMOB
REGIONAL WEATHER ROUNDUP
NATIONAL WEATHER SERVICE MOBILE AL
1200 PM CDT TUE SEP 26 2017

NOTE: "FAIR" INDICATES FEW OR NO CLOUDS BELOW 12,000 FEET WITH NO
      SIGNIFICANT WEATHER AND/OR OBSTRUCTIONS TO VISIBILITY.

  * THESE STATIONS ARE PART OF THE UNIVERSITY OF SOUTH ALABAMA
    MESONET AND ARE NOT UNDER NWS OR FAA QUALITY CONTROL.

ALZ061>064-261800-
COASTAL ALABAMA

CITY           SKY/WX    TMP DP  RH WIND       PRES   REMARKS
MOBILE REG APT PTSUNNY   85  71  63 S5        29.96F
BROOKLEY FIELD MOSUNNY   85  72  65 VRB3      29.96F
USA CAMPUS*    NOT AVBL
DOG RIVER*     NOT AVBL


CITY           SKY/WX    TMP DP  RH WIND       PRES   REMARKS
GULF SHORES    MOSUNNY   86  74  66 S8        29.95F

$$

ALZ051>060-261800-
INTERIOR SOUTHWEST AND SOUTH CENTRAL ALABAMA

CITY           SKY/WX    TMP DP  RH WIND       PRES   REMARKS
GREENVILLE     SUNNY     90  61  37 VRB3      29.97F
EVERGREEN      MOSUNNY   88  64  44 VRB5      29.97F
ATMORE*          N/A    N/A N/A N/A S3          N/A
ANDALUSIA/OPP  SUNNY     92  61  35 VRB3      29.96F
ANDALUSIA*       N/A     86  63  45 SE3       29.97F
FLORALA APT    NOT AVBL
FLORALA*         N/A     88  63  42 W6        30.63F

$$

FLZ001>006-261800-
WESTERN FLORIDA PANHANDLE

CITY           SKY/WX    TMP DP  RH WIND       PRES   REMARKS
PENSACOLA      SUNNY     88  71  57 CALM      29.95S
NAS PENSACOLA  MOSUNNY   85  72  65 VRB7      29.94F
MILTON         MOSUNNY   87  71  58 CALM      29.95F
WHTNG S FIELD  MOSUNNY   90  71  53 VRB3      29.95S HX  96


CITY           SKY/WX    TMP DP  RH WIND       PRES   REMARKS
JAY*             N/A     88  68  51 CALM      29.95F
DUKE FIELD     PTSUNNY   87  68  52 CALM      29.95S
CRESTVIEW      SUNNY     89  68  49 CALM      29.97S
VALPARAISO     MOSUNNY   87  67  50 S8        29.94F
DESTIN         SUNNY     89  72  56 VRB3      29.95S HX  96

$$

MSZ076-079-261800-
INTERIOR SOUTHEAST MISSISSIPPI

CITY           SKY/WX    TMP DP  RH WIND       PRES   REMARKS
LEAKESVILLE*     N/A     84  72  65 CALM      29.97F
AGRICOLA*        N/A     84  72  65 CALM      29.95F

$$

MARINE OBSERVATIONS

STATION/POSITION TIME  TEMP    WIND        PRES    WAVE
                       AIR SEA DIR/SP/G            HT/PER
                 (UTC) (F)     (DEG/KT/KT) (MB)    (FT/S)
PASCAGOULA       1642   82     130/  4/  7 1014.1F
PETIT BOIS ISLND 1642   81      70/  6/  8 1014.9F
GRAND BAY        1530   78     310/  6     1016.0R
KATRINA CUT      1630   77     260/  4     1014.6F
CEDAR POINT      1630   80     250/  6     1014.9S
E DAUPHIN ISLAND 1600   80      50/  4/  4 1014.3R
MIDDLE BAY LIGHT 1630   82     140/  2     1014.6F
USCG MOBILE BAY  1642   81 83  100/  5/  6 1014.4F
STATE DOCKS      1642   84 82              1014.4F
MEAHER PARK      1630   81     230/  6     1014.6S
WEEKS BAY        1545   83                 1014.0S
FORT MORGAN      1642   83     180/  1/  3   N/A
12 S ORANGE BCH  1550   80 82   80/  8/  8 1014.1R   1/ 5
PENSACOLA BAY    1642   86 81              1014.5S
64 S DAUPHIN ISL 1700   83 83   90/  6/  8 1014.0
67 S FORT MORGAN 1630   81      30/  2     1013.9F

$$

SELECTED LOCATIONS ACROSS THE REGION

CITY           SKY/WX    TMP DP  RH WIND       PRES   REMARKS
NEW ORLEANS    PTSUNNY   84  71  65 NE8       29.94S
GULFPORT       CLOUDY    85  74  69 E7        29.94F
PASCAGOULA AP  CLOUDY    84  67  56 CALM      29.94F
PASCAGOULA*      N/A     77  72  83 SE2         N/A
HATTIESBURG    MOSUNNY   85  73  67 SE6       29.96F
LAUREL         MOSUNNY   85  74  69 VRB6      29.97F
MERIDIAN       MOSUNNY   86  70  58 NE3       29.98S
JACKSON        PTSUNNY   86  70  58 E5        29.97F
MONTGOMERY     SUNNY     89  63  41 N6        29.98F
TROY           SUNNY     86  64  47 MISG      29.98F
ASHFORD*         N/A     86  63  45 SE3       29.97F
DOTHAN         SUNNY     88  61  40 VRB5      30.00S
PANAMA CITY    MOSUNNY   88  68  51 CALM      29.93F

$$





USA.gov is the U.S. government's official web portal to all federal, state and local government web resources and services.